Regional Weather Roundup
Issued by NWS

Home | Current Version | Previous Version | Graphics & Text | Print | Product List | Glossary On
Versions: 1 2 3 4 5 6 7 8 9 10 11 12 13 14 15 16 17 18 19 20 21 22 23 24 25 26 27 28 29 30 31 32 33 34 35 36 37 38 39 40 41 42 43 44 45 46 47 48 49 50
000
ASUS43 KDTX 251910
RWRMI
MICHIGAN HOURLY REGIONAL WEATHER ROUNDUP
NATIONAL WEATHER SERVICE DETROIT/PONTIAC MI
300 PM EDT MON JUL 25 2016

NOTE: "FAIR" INDICATES FEW OR NO CLOUDS BELOW 12,000 FEET WITH NO
SIGNIFICANT WEATHER AND/OR OBSTRUCTION TO VISIBILITY.

MIZ047>049-052>055-059>063-066>070-074>076-081>083-252000-
SOUTHEAST LOWER MICHIGAN

CITY           SKY/WX    TMP DP  RH WIND       PRES   REMARKS
ADRIAN         CLOUDY    87  66  49 NW12      29.96F
ALMA           MOSUNNY   86  62  44 NW16      29.95S
ANN ARBOR      MOSUNNY   90  64  42 SW10      29.94S HAZE    HX  91
BAD AXE        MOSUNNY   86  60  42 W14G20    29.91S
CARO           MOSUNNY   88  64  44 W8G17     29.92S
DETROIT CITY   MOSUNNY   90  63  40 W8        29.91F HX  91
DETROIT        PTSUNNY   92  63  38 W12G21    29.93S HX  93
FLINT          MOSUNNY   89  62  40 NW12G20   29.93F
GROSSE ILE     PTSUNNY   87  73  63 W9        29.92S HX  94
HOWELL         MOSUNNY   86  61  43 NW8       29.96S

CITY           SKY/WX    TMP DP  RH WIND       PRES   REMARKS
JACKSON        PTSUNNY   85  65  51 W10       29.97S
LAMBERTVILLE   CLOUDY    87  71  58 W7        29.96S HX  92
LANSING        MOSUNNY   86  64  47 W10       29.96F
LAPEER         FAIR      87  60  40 NW9G17    29.93F
MASON          MOSUNNY   86  64  47 W13       29.96S
MONROE         PTSUNNY   85  75  70 SW9G16    29.93S HX  94
MT. CLEMENS    PTSUNNY   88  66  47 W16G24    29.90S HX  90
PONTIAC        MOSUNNY   87  64  46 W16G22    29.93F
PORT HURON     MOSUNNY   84  66  54 W9        29.91S
TRI CITIES     MOSUNNY   86  64  47 W17       29.93S
MIDLAND        FAIR      86  61  42 W9        29.91S
TROY           MOSUNNY   90  58  33 NW15      29.94S
SAGINAW HB     MOSUNNY   88  61  40 W9G21     29.92S
$$
MIZ043>046-050>051-056>058-064>065-071>073-077>080-252000-
SOUTHWEST LOWER MICHIGAN

CITY           SKY/WX    TMP DP  RH WIND       PRES   REMARKS
BATTLE CREEK   MOSUNNY   83  65  54 NW7       29.99S
BENTON HARBOR  SUNNY     80  66  62 VRB5      30.01S
BIG RAPIDS     SUNNY     83  59  44 W8G22     29.96S
COLDWATER      CLOUDY    85  62  46 W10       29.99S
FREMONT        FAIR      84  59  43 NW13G18   29.98S
HOLLAND        SUNNY     81  66  60 NW6       30.00S
GRAND RAPIDS   MOSUNNY   86  62  44 W7        29.97S
IONIA          PTSUNNY   86  59  39 W9        29.95F
KALAMAZOO      MOSUNNY   86  64  47 NW12      29.99S
LUDINGTON      SUNNY     79  64  60 W7        29.97S
MARSHALL       MOSUNNY   87  64  46 NW7G16    29.97S
MOUNT PLEASANT MOSUNNY   86  61  42 W10       29.93F
MUSKEGON       MOSUNNY   84  63  49 NW10      29.98S
SOUTH HAVEN    SUNNY     77  66  69 W7        30.02R
$$
MIZ016>042-252000-
NORTHERN LOWER MICHIGAN

CITY           SKY/WX    TMP DP  RH WIND       PRES   REMARKS
ALPENA         MOSUNNY   87  55  33 NW15G22   29.87S
BEAVER ISLAND  MOSUNNY   77  64  63 W8        29.93S
BELLAIRE       MOSUNNY   77  60  56 W8        29.95R
CADILLAC       SUNNY     82  55  39 W13G23    29.96S
CHARLEVOIX     SUNNY     78  63  58 W15       29.97S
FRANKFORT      SUNNY     80  63  56 W12       29.96S
GAYLORD        PTSUNNY   78  58  49 W14G23    29.95R
GRAYLING       SUNNY     83  57  40 W14G25    29.94S
HARBOR SPRINGS MOSUNNY   74  67  77 SW13G18   29.92F
HOUGHTON LAKE  MOSUNNY   83  57  41 W18G24    29.94S
MANISTEE       SUNNY     81  64  56 W10       29.96S
OSCODA         MOSUNNY   89  57  34 W16G26    29.86S
PELLSTON       MOSUNNY   81  60  48 W15       29.92R
ROGERS CITY    PTSUNNY   75  61  62 NW10      29.90R
TRAVERSE CITY  MOSUNNY   83  58  42 NW16G23   29.93R
$$
MIZ007>008-015-252000-
EASTERN UPPER MICHIGAN

CITY           SKY/WX    TMP DP  RH WIND       PRES   REMARKS
KINROSS        CLOUDY    74  62  66 NW16G23   29.90R
MACKINAC ISLAN PTSUNNY   75  60  58 W17G25    29.90R
NEWBERRY       CLOUDY    73  59  60 W13G20    29.93R
S. S. MARIE    CLOUDY    71  61  70 NW17G23   29.90R
$$
MIZ004>006-011>014-085-252000-
CENTRAL UPPER MICHIGAN

CITY           SKY/WX    TMP DP  RH WIND       PRES   REMARKS
MANISTIQUE     MOSUNNY   79  61  54 NW14G21   29.92S
ESCANABA       MOSUNNY   82  57  42 NW12G23   29.92R
MENOMINEE      SUNNY    N/A N/A N/A N8G16     29.95F
SAWYER-GWINN   MOSUNNY   79  52  38 N16G24    29.96R
$$
MIZ001>003-009>011-084-252000-
WESTERN UPPER MICHIGAN

CITY           SKY/WX    TMP DP  RH WIND       PRES   REMARKS
IRON MOUNTAIN  SUNNY     82  56  40 NW10      29.96F
HOUGHTON       SUNNY     75  59  57 W20G30    29.96R
COPPER HARBOR    N/A     75  59  57 N18G28    29.91F
IRONWOOD       MOSUNNY   75  59  57 NW13G20   29.99S
$$

ABBREVIATIONS USED IN REMARKS
   TC - TEMPERATURE IN CELSIUS
  WCI - WIND CHILL INDEX
   HX - HEAT INDEX
  VSB - VISIBILITY




USA.gov is the U.S. government's official web portal to all federal, state and local government web resources and services.